TimeBST,TemperatureF,Dew PointF,Humidity,Sea Level PressureIn,VisibilityMPH,Wind Direction,Wind SpeedMPH,Gust SpeedMPH,PrecipitationIn,Events,Conditions,WindDirDegrees,DateUTC
12:50 AM,45,42,86,29.74,19,South,8.1,,,,Mostly Cloudy,180,2012-10-12 23:50:00
12:50 AM,44.6,42.8,93,29.71,6.2,South,8.1,-,N/A,,Mostly Cloudy,180,2012-10-12 23:50:00
1:50 AM,44.6,42.8,93,29.71,6.2,South,6.9,-,N/A,,Mostly Cloudy,170,2012-10-13 00:50:00
2:50 AM,41.0,41.0,100,29.71,6.2,South,4.6,-,N/A,,Partly Cloudy,190,2012-10-13 01:50:00
3:50 AM,40,39,95,29.71,22,South,5.8,,,,Scattered Clouds,170,2012-10-13 02:50:00
3:50 AM,41.0,39.2,93,29.68,6.2,South,5.8,-,N/A,,Mostly Cloudy,170,2012-10-13 02:50:00
4:50 AM,41.0,41.0,100,29.68,6.2,South,3.5,-,N/A,,Mostly Cloudy,170,2012-10-13 03:50:00
5:50 AM,41.0,39.2,93,29.65,6.2,South,3.5,-,N/A,,Scattered Clouds,190,2012-10-13 04:50:00
6:50 AM,41,40,96,29.67,25,South,4.6,,,,Mostly Cloudy,180,2012-10-13 05:50:00
6:50 AM,41.0,41.0,100,29.65,6.2,South,4.6,-,N/A,,Mostly Cloudy,180,2012-10-13 05:50:00
7:50 AM,39.2,37.4,93,29.65,6.2,SSE,3.5,-,N/A,,Scattered Clouds,150,2012-10-13 06:50:00
8:50 AM,44.6,42.8,93,29.65,6.2,West,2.3,-,N/A,,Partly Cloudy,260,2012-10-13 07:50:00
9:50 AM,48,44,80,29.67,19,WNW,5.8,,,,Mostly Cloudy,300,2012-10-13 08:50:00
9:50 AM,48.2,44.6,87,29.65,6.2,WNW,5.8,-,N/A,,Mostly Cloudy,300,2012-10-13 08:50:00
10:50 AM,48.2,44.6,87,29.65,6.2,WNW,6.9,-,N/A,,Mostly Cloudy,290,2012-10-13 09:50:00
11:50 AM,50.0,42.8,76,29.65,6.2,WNW,6.9,-,N/A,,Mostly Cloudy,290,2012-10-13 10:50:00
12:50 PM,51,43,67,29.65,7,West,4.6,,,,Mostly Cloudy,280,2012-10-13 11:50:00
12:50 PM,51.8,42.8,71,29.65,6.2,West,4.6,-,N/A,,Mostly Cloudy,280,2012-10-13 11:50:00
1:50 PM,50.0,44.6,82,29.62,6.2,West,2.3,-,N/A,,Scattered Clouds,260,2012-10-13 12:50:00
2:50 PM,50.0,42.8,76,29.62,6.2,WSW,5.8,-,N/A,Rain,Light Rain Showers,240,2012-10-13 13:50:00
3:50 PM,51,41,59,29.63,16,West,8.1,,,Rain,Light Rain Showers,260,2012-10-13 14:50:00
3:50 PM,51.8,41.0,67,29.62,6.2,West,8.1,-,N/A,,Partly Cloudy,260,2012-10-13 14:50:00
4:50 PM,50.0,42.8,76,29.62,6.2,West,8.1,-,N/A,,Mostly Cloudy,260,2012-10-13 15:50:00
5:50 PM,46.4,41.0,81,29.65,6.2,West,9.2,-,N/A,,Mostly Cloudy,260,2012-10-13 16:50:00
6:50 PM,45,42,85,29.67,22,SW,4.6,,,,Mostly Cloudy,230,2012-10-13 17:50:00
6:50 PM,44.6,42.8,93,29.65,6.2,SW,4.6,-,N/A,,Mostly Cloudy,230,2012-10-13 17:50:00
7:50 PM,44.6,42.8,93,29.65,6.2,SW,4.6,-,N/A,,Overcast,230,2012-10-13 18:50:00
8:50 PM,42.8,41.0,93,29.65,6.2,West,3.5,-,N/A,,Scattered Clouds,270,2012-10-13 19:50:00
9:50 PM,42,40,91,29.68,19,West,2.3,,,,Mostly Cloudy,260,2012-10-13 20:50:00
9:50 PM,42.8,41.0,93,29.65,6.2,West,2.3,-,N/A,,Mostly Cloudy,260,2012-10-13 20:50:00
10:50 PM,42.8,41.0,93,29.65,6.2,WNW,2.3,-,N/A,,Mostly Cloudy,290,2012-10-13 21:50:00
11:50 PM,-9999,-9999,N/A,29.65,6.2,ESE,1.2,-,N/A,,Partly Cloudy,120,2012-10-13 22:50:00